#timestamp,LO_Frequency,Hit,StdDev 
1672120815.2,286047000.4,N
1672120835.9,286047000.6,N
1672120855.7,286047000.5,N
1672120875.6,286047002.3,N
1672120895.4,286047002.7,Y
1672120915.2,286046998.2,P
1672120935.1,286047001.2,N
1672120936.0,286047001.2,N
1672120955.8,286047000.5,N
1672120975.7,286046998.2,N
1672120995.5,286047000.9,N
1672121015.3,286047000.6,N
1672121035.2,286046999.6,N
1672121055.0,286046998.1,N
1672121055.9,286046998.1,N
1672121075.8,286046998.9,N
1672121095.6,286047000.9,N
1672121115.4,286047002.4,N
1672121135.3,286047001.6,N
1672121155.1,286047000.2,N
1672121175.8,286047002.7,N
1672121195.7,286047000.3,N
1672121215.5,286047004.0,N
1672121235.4,286047000.1,N
1672121255.2,286047001.1,N
1672121275.0,286047000.0,N
1672121275.9,286047000.0,N
1672121295.8,286047000.5,N
1672121315.6,286047000.7,N
1672121335.4,286046999.9,N
1672121355.3,286047000.2,N
1672121375.1,286046999.8,N
1672121395.9,286047000.0,N
1672121415.7,286047002.0,N
1672121435.5,286047002.1,N
1672121455.4,286047002.5,N
1672121475.2,286046999.8,N
1672121495.0,286046999.9,N
1672121496.0,286046999.9,N
1672121515.8,286047001.2,N
1672121535.6,286047001.1,N
1672121555.5,286046999.2,N
1672121575.3,286046999.2,N
1672121595.1,286047000.1,N
1672121615.9,286046998.4,N
1672121635.7,286046999.6,N
1672121655.6,286046999.4,N
1672121675.5,286046998.6,N
1672121695.3,286046999.4,N
1672121715.1,286046996.8,N
1672121735.9,286046996.8,N
1672121755.7,286046999.6,N
1672121775.5,286046996.8,N
1672121795.4,286046996.8,N
1672121815.2,286046997.5,N
1672121835.1,286046999.6,N
1672121836.0,286046999.6,N
1672121855.8,286047000.4,N
1672121875.6,286046998.2,N
1672121895.5,286046997.8,N
1672121915.3,286046994.9,Y
1672121935.2,286046997.0,P
1672121955.9,286046999.1,N
1672121975.7,286046999.0,N
1672121995.6,286046998.3,N
1672122015.4,286047002.7,Y
1672122035.2,286047002.9,P
1672122055.1,286047003.7,N
1672122056.0,286047003.7,N
1672122075.8,286047004.0,N
1672122095.7,286047001.6,N
1672122115.5,286047002.4,N
1672122135.3,286047001.4,N
1672122155.2,286047001.0,N
1672122175.0,286047000.6,N
1672122175.9,286047000.6,N
1672122195.8,286047002.8,N
1672122215.6,286047001.9,N
1672122235.4,286047004.0,N
1672122255.3,286046999.7,N
1672122275.1,286047002.5,N
1672122295.8,286047002.8,N
1672122315.7,286046998.1,N
1672122335.5,286047000.7,N
1672122355.4,286046998.5,N
1672122375.2,286046998.8,N
1672122395.1,286047000.0,N
1672122396.0,286047000.0,N
1672122415.8,286047002.6,N
1672122435.6,286047002.4,N
1672122455.5,286047001.9,N
1672122475.3,286046999.7,N
1672122495.2,286047000.7,N
1672122515.9,286046998.2,N
1672122535.7,286047000.7,N
1672122555.6,286047001.6,N
1672122575.4,286047001.7,N
1672122595.3,286047003.4,N
1672122615.1,286047001.6,N
1672122616.0,286047001.6,N
1672122635.8,286047004.3,N
1672122655.7,286047002.4,N
1672122675.5,286047001.3,N
1672122695.3,286047002.2,N
1672122715.2,286047002.2,N
1672122735.0,286047002.8,N
1672122735.9,286047002.8,N
1672122755.8,286047002.4,N
1672122775.6,286047002.0,N
1672122795.4,286047002.7,N
1672122815.3,286047001.5,N
1672122835.1,286047001.5,N
1672122855.9,286047000.4,N
1672122875.7,286047002.3,N
1672122895.5,286047001.8,N
1672122915.4,286047001.8,N
1672122935.2,286047002.3,N
1672122955.0,286047001.7,N
1672122955.9,286047001.7,N
1672122975.8,286047001.5,N
1672122995.6,286047004.3,Y
1672123015.5,286047000.0,P
1672123035.3,286047000.5,N
1672123055.1,286047000.2,N
1672123075.9,286046998.6,N
1672123095.7,286046998.7,N
1672123115.5,286046998.7,N
1672123135.4,286047002.3,N
1672123155.2,286047003.9,N
1672123175.1,286047001.5,N
1672123176.0,286047001.5,N
1672123195.8,286047001.6,N
1672123215.6,286047002.0,N
1672123235.5,286047002.6,N
1672123255.3,286047002.5,N
1672123275.1,286047001.6,N
1672123295.9,286047002.6,N
1672123315.7,286047000.4,N
1672123335.6,286046999.8,N
1672123355.4,286047001.0,N
1672123375.2,286047002.1,N
1672123395.1,286047002.6,N
1672123396.0,286047002.6,N
1672123415.8,286047000.9,N
1672123435.6,286046998.1,N
1672123455.5,286046998.6,N
1672123475.3,286047001.7,N
1672123525.2,286046999.7,E
1672123535.1,286047000.3,N
1672123555.8,286046998.4,P
1672123575.7,286046999.3,N
1672123595.5,286046998.3,N
1672123615.4,286046998.8,N
1672123635.2,286046998.5,N
1672123655.0,286047001.1,N
1672123655.9,286047001.1,N
1672123675.8,286047002.3,N
1672123695.6,286047001.4,N
1672123715.5,286047000.5,N
1672123735.3,286047000.4,N
1672123755.1,286047000.2,N
1672123775.9,286046998.3,N
1672123795.7,286046998.8,N
1672123815.5,286047000.9,N
1672123835.4,286047000.5,N
1672123855.2,286046999.0,N
1672123875.1,286046999.1,N
1672123876.0,286046999.1,N
1672123895.8,286046993.4,Y
1672123915.6,286046993.4,P
1672123935.5,286046995.7,N
1672123955.3,286046997.0,N
1672123975.1,286046998.1,N
1672123995.9,286046998.9,N
1672124015.7,286047002.7,N
1672124035.6,286047000.3,N
1672124055.4,286047000.7,N
1672124075.2,286047000.8,N
1672124095.1,286047002.4,N
1672124096.0,286047002.4,N
1672124115.8,286047001.3,N
1672124135.7,286047001.7,N
1672124155.5,286047001.5,N
1672124175.3,286047003.8,N
1672124195.2,286047001.3,N
1672124215.0,286047004.1,N
1672124215.9,286047004.1,N
1672124235.8,286047003.5,N
1672124255.6,286047003.6,N
1672124275.4,286047004.1,N
1672124295.3,286047002.0,N
1672124315.1,286047001.7,N
1672124335.9,286047001.7,N
1672124355.7,286047002.6,N
1672124375.5,286047001.2,N
1672124395.4,286046998.7,N
